TITAN 3C TRANSTAGE DEB, 1684

Orbit data source: Space-Track

TITAN 3C TRANSTAGE DEB, 1684 is space debris in LEO originally from a launch on Fri, 15 Oct 1965 UTC launched from the Air Force Eastern Test Range (AFETR). Debris objects in space refer to the collection of defunct objects orbiting the Earth. Examples of debris include non-operational satellites, rocket bodies, and fragments generated from explosions, collisions, or faulty payload assembly.

Loading next visibility...
Identifier
1684, 1965-082AX
Orbit
LEO
Country
Flag of USUS
Related business
Manufacturer
Unknown
Mission
Spacecraft
Bus & Motor
Unknown
Mass
Unknown
Launch date (UTC)
1965-10-15 (60 years ago)
Launch vehicle
Unknown
Launch site
Air Force Eastern Test Range (AFETR)
Object type
Payload
Rocket body
Debris
Shape & HBR
Unknown
Radar Cross Section
1.200 m², Large (>1 m²)

Expand to show TLE details & history
Last TLE update: 22 hours ago

TLE from 22 hours ago
0 TITAN 3C TRANSTAGE DEB
1 01684U 65082AX  25260.18243907  .00001472  00000-0  38466-3 0  9993
2 01684  32.2143 294.0506 0169274 214.7122 144.2371 14.39234664103165
Epoch: 2025-09-17T04:22Z
TLE epoch observation values (Epoch: 2025-09-17T04:22:42.735Z)
Latitude
-0.00003°
Longitude
-127.98956°
Altitude
858.42 km
Speed
7.374 km/s
True Right ascension
19h 36m 12s
True Declination
0° 00' 00"
Sunlit
Object was in full shadow at epoch
Visualization orbit readout
Latitude
Unknown
Longitude
Unknown
Altitude
Unknown
Speed
Unknown
Apparent Right ascension
Unknown
Apparent Declination
Unknown
Sunlit
N/A
Visualization observer readout
Local Sidereal Time
19:14:39
Azimuth
Unknown
Elevation
Unknown
Doppler factor
Unknown
Orbital elements
Apogee altitude
885.482 km
Perigee altitude
643.667 km
Semi-major axis
7,142.712 km
Eccentricity
0.01693
Inclination
32.2143°
RAAN
294.0506°
Arg. of periapsis
214.7122°
True anomaly
145.35153°
Mean anomaly
144.2371°
Eccentric anomaly
144.79622°
Mean motion
3.59541 °/min
Orbital period
100.13 mins
BSTAR
0.00038466
Loading maneuver chart data...
Computing Atmospheric mass density...

Documentation

Showing up to 5 results
|